Ocean City, MD

2:36 AM EDT on September 23, 2017 (GMT -0400)
Ocean City Municipal

Weather History for KOXB - November, 2012

Change the Weather History Date:

Tuesday, November 20, 2012

  Actual Average (KSBY) Record (KSBY)
Temperature  
Mean Temperature 46 °F -  
Max Temperature 54 °F 58 °F 75 °F (1985)
Min Temperature 39 °F 37 °F 22 °F (1924)
Degree Days  
Heating Degree Days 18    
Moisture  
Dew Point 43 °F    
Average Humidity 84    
Maximum Humidity 97    
Minimum Humidity 64    
Precipitation  
Precipitation 0.00 in - - ()
Sea Level Pressure  
Sea Level Pressure 30.13 in    
Wind  
Wind Speed 10 mph (NNE)    
Max Wind Speed 14 mph    
Max Gust Speed 22 mph    
Visibility 10 miles    
Events      
Averages and records for this station are not official NWS values.
T = Trace of Precipitation, MM = Missing Value Source: NWS Daily Summary

Daily Weather History Graph

Daily Weather History Graph

Search for Another Location

Airport or City:

Trip Planner

Search our weather history database for the weather conditions in past years. The results will help you decide how hot, cold, wet, or windy it might be!

Date:

Astronomy

Nov. 20, 2012 Rise Set
Actual Time 6:47 AM EST 4:44 PM EST
Civil Twilight 6:19 AM EST 5:12 PM EST
Nautical Twilight 5:46 AM EST 5:45 PM EST
Astronomical Twilight 5:15 AM EST 6:16 PM EST
Moon 12:23 PM EST (11/20) No Moon Set
Length of Visible Light 10h 53m
Length of Day
9h 56m
Waxing Crescent, 51% of the Moon is Illuminated
Nov 20
Waxing Crescent
Nov 28
Full
Dec 6
Last Quarter
Dec 13
New
Dec 20
First Quarter

Hourly Weather History & Observations

Time (EST) Temp. Windchill Dew Point Humidity Pressure Visibility Wind Dir Wind Speed Gust Speed Precip Events Conditions
12:53 AM 51.1 °F - 48.9 °F 92% 30.16 in 9.0 mi NNE 10.4 mph 16.1 mph N/A   Overcast
1:39 AM 51.8 °F - 48.2 °F 88% 30.15 in 9.0 mi NNE 10.4 mph 17.3 mph N/A   Overcast
1:53 AM 51.1 °F - 48.0 °F 89% 30.15 in 10.0 mi NNE 9.2 mph 17.3 mph N/A   Overcast
2:53 AM 51.1 °F - 48.0 °F 89% 30.14 in 10.0 mi NE 12.7 mph 21.9 mph N/A   Overcast
3:53 AM 51.1 °F - 46.9 °F 86% 30.14 in 10.0 mi NNE 11.5 mph 20.7 mph N/A   Overcast
4:53 AM 50.0 °F - 46.9 °F 89% 30.15 in 10.0 mi NNE 11.5 mph 18.4 mph N/A   Overcast
5:53 AM 48.9 °F - 46.0 °F 90% 30.15 in 10.0 mi North 12.7 mph - N/A   Overcast
6:53 AM 48.9 °F - 45.0 °F 86% 30.17 in 10.0 mi NNE 13.8 mph 19.6 mph N/A   Overcast
7:11 AM 48.2 °F - 44.6 °F 87% 30.16 in 10.0 mi NE 8.1 mph 17.3 mph N/A   Overcast
7:26 AM 48.2 °F - 44.6 °F 87% 30.17 in 10.0 mi NE 10.4 mph 16.1 mph N/A   Overcast
7:53 AM 48.9 °F - 44.1 °F 83% 30.17 in 10.0 mi NE 9.2 mph 17.3 mph N/A   Overcast
8:53 AM 48.9 °F - 44.1 °F 83% 30.16 in 10.0 mi North 10.4 mph - N/A   Overcast
9:53 AM 51.1 °F - 43.0 °F 74% 30.15 in 10.0 mi North 9.2 mph - N/A   Overcast
10:38 AM 53.6 °F - 42.8 °F 67% 30.13 in 10.0 mi North 9.2 mph 16.1 mph N/A   Scattered Clouds
10:53 AM 53.1 °F - 42.1 °F 66% 30.13 in 10.0 mi North 10.4 mph - N/A   Clear
11:53 AM 53.1 °F - 42.1 °F 66% 30.11 in 10.0 mi North 11.5 mph - N/A   Clear
12:53 PM 54.0 °F - 42.1 °F 64% 30.10 in 10.0 mi NNE 8.1 mph - N/A   Clear
2:53 PM 51.1 °F - 43.0 °F 74% 30.09 in 10.0 mi NE 9.2 mph - N/A   Clear
3:53 PM 48.9 °F - 42.1 °F 77% 30.09 in 10.0 mi NE 9.2 mph - N/A   Clear
4:53 PM 48.0 °F - 42.1 °F 80% 30.09 in 10.0 mi NE 6.9 mph - N/A   Clear
5:53 PM 48.0 °F - 42.1 °F 80% 30.09 in 10.0 mi NNE 6.9 mph - N/A   Clear
6:53 PM 45.0 °F 43.5 °F 41.0 °F 86% 30.10 in 10.0 mi NNE 3.5 mph - N/A   Clear
7:53 PM 39.9 °F 37.8 °F 37.9 °F 93% 30.12 in 10.0 mi NNW 3.5 mph - N/A   Clear
8:53 PM 39.9 °F 36.7 °F 39.0 °F 97% 30.12 in 10.0 mi NNW 4.6 mph - N/A   Clear
9:53 PM 42.1 °F 39.2 °F 39.9 °F 92% 30.12 in 10.0 mi WNW 4.6 mph - N/A   Clear
10:53 PM 42.1 °F 40.2 °F 41.0 °F 96% 30.12 in 10.0 mi NW 3.5 mph - N/A   Clear
11:53 PM 39.0 °F 35.7 °F 37.9 °F 96% 30.11 in 8.0 mi NW 4.6 mph - N/A   Clear